Find Starlink 32173

NORAD ID: 60586 Int'l Des: 2024-150 Owner: SPXS Country: US Constellation: starlink operational
LEOCIRCULAR

現在のビュー

3D地球を読み込み中...

About Starlink 32173

Starlink 32173 (NORAD 60586) is a starlink constellation satellite (v2 mini) launched Aug 20, 2024 by SPXS of US. It operates in LEO, CIRCULAR orbit with a mass of 730.00 kg.

Starlink 32173について

説明を読み込み中...

次回通過

Passes for default location (London). Set your location on the main map for personalized predictions.

高度履歴

Loading altitude history...

軌道要素

1 60586U 24150D 26175.24978764 .00000381 00000-0 22403-4 0 9992
2 60586 53.1593 170.1204 0001166 87.9277 272.1859 15.34389995104388
Epoch: Jun 24, 2026 • Age: 19 hours

現在のステータス

高度 467.6 km
速度 7.64 km/s
衛星直下点 49.04°N, 4.39°W
打ち上げ日 Aug 20, 2024
運用期間 1.8 years
タイプ internet

技術仕様

分類 Payload
質量 730.00 kg
乾燥質量 700.00 kg
総質量 730.00 kg
長さ 0.30 m
直径 4.10 m
スパン 29.00 m
形状 Box + pan
製造者 SPXS
バスタイプ Starlink V2M
フェーズステータス In Orbit
所有者/国 SPXS/US

Most Searched